Regional Weather Roundup
Issued by NWS Kansas City/Pleasant Hill, MO

Home | Current Version | Previous Version | Graphics & Text | Print | Product List | Glossary Off
Versions: 1 2 3 4 5 6 7 8 9 10 11 12 13 14 15 16 17 18 19 20 21 22 23 24 25 26 27 28 29 30 31 32 33 34 35 36 37 38 39 40 41 42 43 44 45 46 47 48 49 50

000
ASUS43 KEAX 130711
RWREAX

WEATHER ROUNDUP FOR EASTERN KANSAS AND NORTHWEST MISSOURI
NATIONAL WEATHER SERVICE KANSAS CITY/PLEASANT HILL MO
200 AM CDT SUN JUL 13 2014

KSZ040-057-103>105-MOZ028-029-037-043-130800-
...KANSAS CITY METROPOLITAN AREA...

CITY           SKY/WX    TMP DP  RH WIND       PRES   REMARKS
K.C. INTL      CLOUDY    80  69  69 NW9       30.00R
K.C. DOWNTOWN  PTCLDY    84  66  54 SW12      29.95F
LEES SUMMIT    CLEAR     79  67  66 SW10      29.99R
OLATHE - IXD   CLEAR     79  66  64 S10       29.99S
OLATHE - OJC   CLEAR     77  67  71 SW6       29.98S
LAWRENCE       PTCLDY    80  67  64 SW9       29.96F

$$

MOZ001>008-011>017-020>025-030>033-038>040-044>046-053-054-130800-
...NORTHERN AND CENTRAL MISSOURI...

CITY           SKY/WX    TMP DP  RH WIND       PRES   REMARKS
ST. JOSEPH     MOCLDY    75  68  78 N14       30.02R
MOSBY          PTSUNNY   82  66  57 SW7       29.96S
WHITEMAN AFB   NOT AVBL
CLINTON        CLEAR     79  68  69 SW6       30.00S
SEDALIA        CLEAR     79  68  69 SW10      30.00S
WARSAW         NOT AVBL
MARSHALL         N/A     81  70  69 SW9       29.97F HAZE
CHILLICOTHE      N/A     78  72  81 VRB6      30.00R
MOBERLY        PTCLDY    81  66  61 SW12      29.97S
KIRKSVILLE     HVY RAIN  75  73  93 NW9       30.00R FOG

$$

MOZ041-047>049-056>058-063>065-088>090-097-130800-
...EASTERN AND SOUTHERN MISSOURI...

CITY           SKY/WX    TMP DP  RH WIND       PRES   REMARKS
ST. LOUIS INTL MOCLDY    83  70  64 SW10      29.98S
SPIRIT OF STL  PTCLDY    80  69  69 SW7       29.97S
COLUMBIA       CLEAR     78  69  73 SW10      29.99S
JEFFERSON CITY CLEAR     80  69  69 CALM      29.98S
MEXICO         CLEAR     81  73  78 SW8       29.97R
HANNIBAL       PTCLDY    82  64  54 SW8       29.94F
ROLLA          CLEAR     75  70  84 S8        30.01F
LEBANON        CLEAR     75  68  78 SW6       30.05S
OSAGE BEACH    CLEAR     79  66  65 SW8       30.01S
SPRINGFIELD    CLEAR     73  67  81 S7        30.05F
BRANSON        CLEAR     75  66  73 S5        30.08F
NEVADA         CLEAR     73  66  78 S6        30.01S
JOPLIN         CLEAR     79  65  62 S12       30.03F
WEST PLAINS    CLEAR     75  70  84 S5        30.08F

$$

IAZ060-094-KSZ022-034>040-054-083-096-NEZ052-066-093-130800-
...KANSAS...SOUTHEAST NEBRASKA AND IOWA...

CITY           SKY/WX    TMP DP  RH WIND       PRES   REMARKS
TOPEKA         CLOUDY    82  69  64 SW9       29.97R
MANHATTAN      CLOUDY    77  71  82 SE3       30.00R
EMPORIA        CLEAR     73  67  81 S12       29.98S
CHANUTE        CLEAR     74  64  71 S10       29.99F
WICHITA        PTCLDY    73  60  63 S9        30.00S
OMAHA          PTCLDY    70  66  87 S7        30.03R
LINCOLN        MOCLDY    69  65  86 N5        30.05S
FALLS CITY     RAIN      72  71  97 W8        30.02R FOG
LAMONI         CLOUDY    72  71  97 N9        29.99F
DES MOINES     MOCLDY    68  66  93 SW5       30.00R

$$



USA.gov is the U.S. government's official web portal to all federal, state and local government web resources and services.